Time,TemperatureF,DewpointF,PressureIn,WindDirection,WindDirectionDegrees,WindSpeedMPH,WindSpeedGustMPH,Humidity,HourlyPrecipIn,Conditions,Clouds,dailyrainin,SoftwareType,DateUTC
2013-09-29 00:03:00,51.0,50.0,-100.00,West,275,0.0,1.0,99,0.00,,,-99.99,,2013-09-29 05:03:00,
2013-09-29 00:10:00,50.0,50.0,-100.00,South,175,0.0,1.0,99,0.00,,,-99.99,,2013-09-29 05:10:00,
2013-09-29 00:43:00,50.0,50.0,-100.00,South,175,0.0,1.0,99,0.00,,,-99.99,,2013-09-29 05:43:00,
2013-09-29 00:53:00,50.0,50.0,-100.00,South,175,0.0,1.0,99,0.00,,,-99.99,,2013-09-29 05:53:00,
2013-09-29 01:03:00,50.0,50.0,-100.00,South,175,0.0,1.0,99,0.00,,,-99.99,,2013-09-29 06:03:00,
2013-09-29 01:10:00,49.0,49.0,-100.00,SW,225,0.0,2.0,99,0.00,,,-99.99,,2013-09-29 06:10:00,
2013-09-29 01:42:00,49.0,49.0,-100.00,SW,225,0.0,2.0,99,0.00,,,-99.99,,2013-09-29 06:42:00,
2013-09-29 01:52:00,49.0,49.0,-100.00,SW,225,0.0,2.0,99,0.00,,,-99.99,,2013-09-29 06:52:00,
2013-09-29 02:02:00,49.0,49.0,-100.00,SW,225,0.0,2.0,99,0.00,,,-99.99,,2013-09-29 07:02:00,
2013-09-29 02:10:00,48.0,47.0,-100.00,WSW,250,1.0,2.0,97,0.00,,,-99.99,,2013-09-29 07:10:00,
2013-09-29 02:43:00,48.0,47.0,-100.00,WSW,250,1.0,2.0,97,0.00,,,-99.99,,2013-09-29 07:43:00,
2013-09-29 02:52:00,48.0,47.0,-100.00,WSW,250,1.0,2.0,97,0.00,,,-99.99,,2013-09-29 07:52:00,
2013-09-29 03:02:00,48.0,47.0,-100.00,WSW,250,1.0,2.0,97,0.00,,,-99.99,,2013-09-29 08:02:00,
2013-09-29 03:42:00,47.0,47.0,-100.00,WNW,285,1.0,2.0,97,0.00,,,-99.99,,2013-09-29 08:42:00,
2013-09-29 03:52:00,47.0,47.0,-100.00,WNW,285,1.0,2.0,97,0.00,,,-99.99,,2013-09-29 08:52:00,
2013-09-29 04:02:00,47.0,47.0,-100.00,WNW,285,1.0,2.0,97,0.00,,,-99.99,,2013-09-29 09:02:00,
2013-09-29 04:10:00,47.0,46.0,-100.00,West,260,1.0,3.0,98,0.00,,,-99.99,,2013-09-29 09:10:00,
2013-09-29 04:43:00,47.0,46.0,-100.00,West,260,1.0,3.0,98,0.00,,,-99.99,,2013-09-29 09:43:00,
2013-09-29 04:54:00,47.0,46.0,-100.00,West,260,1.0,3.0,98,0.00,,,-99.99,,2013-09-29 09:54:00,
2013-09-29 05:03:00,47.0,46.0,-100.00,West,260,1.0,3.0,98,0.00,,,-99.99,,2013-09-29 10:03:00,
2013-09-29 05:43:00,46.0,45.0,-100.00,West,265,0.0,1.0,97,0.00,,,-99.99,,2013-09-29 10:43:00,
2013-09-29 05:53:00,46.0,45.0,-100.00,West,265,0.0,1.0,97,0.00,,,-99.99,,2013-09-29 10:53:00,
2013-09-29 06:03:00,46.0,45.0,-100.00,West,265,0.0,1.0,97,0.00,,,-99.99,,2013-09-29 11:03:00,
2013-09-29 06:42:00,46.0,45.0,-100.00,West,270,0.0,2.0,97,0.00,,,-99.99,,2013-09-29 11:42:00,
2013-09-29 06:52:00,46.0,45.0,-100.00,West,270,0.0,2.0,97,0.00,,,-99.99,,2013-09-29 11:52:00,
2013-09-29 07:01:00,46.0,45.0,-100.00,West,270,0.0,2.0,97,0.00,,,-99.99,,2013-09-29 12:01:00,
2013-09-29 10:10:00,62.0,49.0,-100.00,WNW,285,1.0,4.0,62,0.00,,,-99.99,,2013-09-29 15:10:00,
2013-09-29 11:54:00,66.0,45.0,-100.00,North,0,1.0,9.0,47,0.00,,,-99.99,,2013-09-29 16:54:00,
2013-09-29 12:03:00,66.0,45.0,-100.00,North,0,1.0,9.0,47,0.00,,,-99.99,,2013-09-29 17:03:00,
2013-09-29 12:10:00,69.0,44.0,-100.00,WSW,245,3.0,9.0,41,0.00,,,-99.99,,2013-09-29 17:10:00,
2013-09-29 12:43:00,69.0,44.0,-100.00,WSW,245,3.0,9.0,41,0.00,,,-99.99,,2013-09-29 17:43:00,
2013-09-29 12:52:00,69.0,44.0,-100.00,WSW,245,3.0,9.0,41,0.00,,,-99.99,,2013-09-29 17:52:00,
2013-09-29 13:02:00,69.0,44.0,-100.00,WSW,245,3.0,9.0,41,0.00,,,-99.99,,2013-09-29 18:02:00,
2013-09-29 13:10:00,69.0,44.0,-100.00,WNW,300,1.0,12.0,40,0.00,,,-99.99,,2013-09-29 18:10:00,
2013-09-29 13:42:00,69.0,44.0,-100.00,WNW,300,1.0,12.0,40,0.00,,,-99.99,,2013-09-29 18:42:00,
2013-09-29 13:52:00,69.0,44.0,-100.00,WNW,300,1.0,12.0,40,0.00,,,-99.99,,2013-09-29 18:52:00,
2013-09-29 14:02:00,69.0,44.0,-100.00,WNW,300,1.0,12.0,40,0.00,,,-99.99,,2013-09-29 19:02:00,
2013-09-29 14:10:00,69.0,43.0,-100.00,North,0,1.0,8.0,40,0.00,,,-99.99,,2013-09-29 19:10:00,
2013-09-29 14:42:00,69.0,43.0,-100.00,North,0,1.0,8.0,40,0.00,,,-99.99,,2013-09-29 19:42:00,
2013-09-29 14:52:00,69.0,43.0,-100.00,North,0,1.0,8.0,40,0.00,,,-99.99,,2013-09-29 19:52:00,
2013-09-29 15:02:00,69.0,43.0,-100.00,North,0,1.0,8.0,40,0.00,,,-99.99,,2013-09-29 20:02:00,
2013-09-29 15:43:00,69.0,42.0,-100.00,SW,225,2.0,7.0,38,0.00,,,-99.99,,2013-09-29 20:43:00,
2013-09-29 15:52:00,69.0,42.0,-100.00,SW,225,2.0,7.0,38,0.00,,,-99.99,,2013-09-29 20:52:00,
2013-09-29 16:02:00,69.0,42.0,-100.00,SW,225,2.0,7.0,38,0.00,,,-99.99,,2013-09-29 21:02:00,
2013-09-29 16:44:00,70.0,42.0,-100.00,WSW,240,3.0,10.0,37,0.00,,,-99.99,,2013-09-29 21:44:00,
2013-09-29 16:55:00,70.0,42.0,-100.00,WSW,240,3.0,10.0,37,0.00,,,-99.99,,2013-09-29 21:55:00,
2013-09-29 17:04:00,70.0,42.0,-100.00,WSW,240,3.0,10.0,37,0.00,,,-99.99,,2013-09-29 22:04:00,
2013-09-29 17:43:00,67.0,42.0,-100.00,WSW,250,3.0,9.0,40,0.00,,,-99.99,,2013-09-29 22:43:00,
2013-09-29 17:53:00,67.0,42.0,-100.00,WSW,250,3.0,9.0,40,0.00,,,-99.99,,2013-09-29 22:53:00,
2013-09-29 18:03:00,67.0,42.0,-100.00,WSW,250,3.0,9.0,40,0.00,,,-99.99,,2013-09-29 23:03:00,
2013-09-29 18:43:00,63.0,45.0,-100.00,SW,215,1.0,4.0,51,0.00,,,-99.99,,2013-09-29 23:43:00,
2013-09-29 18:53:00,63.0,45.0,-100.00,SW,215,1.0,4.0,51,0.00,,,-99.99,,2013-09-29 23:53:00,
2013-09-29 19:02:00,63.0,45.0,-100.00,SW,215,1.0,4.0,51,0.00,,,-99.99,,2013-09-30 00:02:00,
2013-09-29 19:42:00,59.0,47.0,-100.00,North,350,0.0,4.0,64,0.00,,,-99.99,,2013-09-30 00:42:00,
2013-09-29 19:52:00,59.0,47.0,-100.00,North,350,0.0,4.0,64,0.00,,,-99.99,,2013-09-30 00:52:00,
2013-09-29 20:02:00,59.0,47.0,-100.00,North,350,0.0,4.0,64,0.00,,,-99.99,,2013-09-30 01:02:00,
2013-09-29 20:42:00,59.0,47.0,-100.00,ESE,105,1.0,4.0,64,0.00,,,-99.99,,2013-09-30 01:42:00,
2013-09-29 20:52:00,59.0,47.0,-100.00,ESE,105,1.0,4.0,64,0.00,,,-99.99,,2013-09-30 01:52:00,
2013-09-29 21:02:00,59.0,47.0,-100.00,ESE,105,1.0,4.0,64,0.00,,,-99.99,,2013-09-30 02:02:00,
2013-09-29 21:42:00,60.0,46.0,-100.00,West,260,1.0,8.0,60,0.00,,,-99.99,,2013-09-30 02:42:00,
2013-09-29 21:52:00,60.0,46.0,-100.00,West,260,1.0,8.0,60,0.00,,,-99.99,,2013-09-30 02:52:00,
2013-09-29 22:02:00,60.0,46.0,-100.00,West,260,1.0,8.0,60,0.00,,,-99.99,,2013-09-30 03:02:00,
2013-09-29 22:45:00,59.0,45.0,-100.00,NNE,30,2.0,9.0,60,0.00,,,-99.99,,2013-09-30 03:45:00,
2013-09-29 22:55:00,59.0,45.0,-100.00,NNE,30,2.0,9.0,60,0.00,,,-99.99,,2013-09-30 03:55:00,
2013-09-29 23:04:00,59.0,45.0,-100.00,NNE,30,2.0,9.0,60,0.00,,,-99.99,,2013-09-30 04:04:00,